PEGASUS DEB, 24129

Orbit data source: Space-Track

PEGASUS DEB, 24129 is space debris in LEO originally from a launch on Thu, 19 May 1994 UTC launched from the Air Force Western Test Range (AFWTR). Debris objects in space refer to the collection of defunct objects orbiting the Earth. Examples of debris include non-operational satellites, rocket bodies, and fragments generated from explosions, collisions, or faulty payload assembly.

Loading next visibility...
Identifier
24129, 1994-029GC
Orbit
LEO
Country
Flag of USUS
Related business
Manufacturer
Unknown
Mission
Spacecraft
Bus & Motor
Unknown
Mass
Unknown
Launch date (UTC)
1994-05-19 (32 years ago)
Launch vehicle
Unknown
Launch site
Air Force Western Test Range (AFWTR)
Object type
Payload
Rocket body
Debris
Shape & HBR
Unknown shape, 0.2 m
Radar Cross Section
Small (<0.1 m²)

Expand to show TLE details & history
Last TLE update: 17 hours ago

TLE from 17 hours ago
0 PEGASUS DEB
1 24129U 94029GC  26062.04658131  .00001977  00000-0  48979-3 0  9990
2 24129  81.4718 258.7841 0539916 350.2836 126.1857 13.89143351485100
Epoch: 2026-03-03T01:07Z
TLE epoch observation values (Epoch: 2026-03-03T01:07:04.625Z)
Latitude
57.79894°
Longitude
-112.52105°
Altitude
1,187.619 km
Speed
7.142 km/s
True Right ascension
04h 20m 19s
True Declination
57° 39' 09"
Sunlit
Object was in daylight at epoch
Visualization orbit readout
Latitude
Unknown
Longitude
Unknown
Altitude
Unknown
Speed
Unknown
Apparent Right ascension
Unknown
Apparent Declination
Unknown
Sunlit
N/A
Visualization observer readout
Local Sidereal Time
22:03:48
Azimuth
Unknown
Elevation
Unknown
Doppler factor
Unknown
Orbital elements
Apogee altitude
1,323.328 km
Perigee altitude
534.3 km
Semi-major axis
7,306.951 km
Eccentricity
0.05399
Inclination
81.4718°
RAAN
258.7841°
Arg. of periapsis
350.2836°
True anomaly
130.98206°
Mean anomaly
126.1857°
Eccentric anomaly
128.60322°
Mean motion
3.47487 °/min
Orbital period
103.6 mins
BSTAR
0.00048979
Loading maneuver chart data...
Computing Atmospheric mass density...
Loading historical data...
Loading historical data...
Loading historical data...
Loading historical data...
Loading historical data...
Loading historical data...
Loading historical data...

Documentation

Showing up to 5 results
|